Location: ???????
(55.4362°N, 38.1183°E)
Time: 19:56:25
(UTC+00:00)

USA 267 - Pass Details

Date: 28 October 2021
Orbit: 1101 x 1107 km, 123.0° (Epoch: 27 November)

Event Time Altitude Azimuth Distance (km) Brightness Sun altitude
Exits shadow 16:45:49 - 170° (S) 3,285 5.5 -24.3°
Reaches altitude 10° 16:46:54 10° 175° (S) 2,953 5.3 -24.4°
Maximum altitude 16:52:11 26° 230° (SW) 2,024 5.0 -25.2°
Drops below altitude 10° 16:57:29 10° 284° (WNW) 2,964 6.6 -25.9°
Sets 17:00:29 0° 297° (WNW) 3,925 7.4 -26.3°
